Wetterdaten: Sonntag, 27.05.2007
Datum Zeit Temp. A. Feuchte A. Luftdruck Regen Wind Richtung Richtung Sonnenschein UV Solar Windben
27.05.2007 00:00 15,6 C 88 % 1001,6 hPa 2,5 mm 3,2 km/h (1 Bft) W-SW 247 0 min 0 UV-I 0 W/m 17,7 km/h (3 Bft)
27.05.2007 00:10 15,2 C 89 % 1001,4 hPa 0,8 mm 1,6 km/h (1 Bft) W-SW 247 0 min 0 UV-I 0 W/m 8,0 km/h (2 Bft)
27.05.2007 00:20 15,1 C 90 % 1001,3 hPa 1,0 mm 1,6 km/h (1 Bft) W-NW 292 0 min 0 UV-I 0 W/m 8,0 km/h (2 Bft)
27.05.2007 00:30 15,1 C 90 % 1001,5 hPa 1,0 mm 0,0 km/h (0 Bft) W-SW 247 0 min 0 UV-I 0 W/m 3,2 km/h (1 Bft)
27.05.2007 00:40 15,0 C 91 % 1000,5 hPa 1,5 mm 0,0 km/h (0 Bft) O-NO 67 0 min 0 UV-I 0 W/m 4,8 km/h (1 Bft)
27.05.2007 00:50 15,0 C 91 % 1000,1 hPa 0,8 mm 1,6 km/h (1 Bft) O 90 0 min 0 UV-I 0 W/m 8,0 km/h (2 Bft)
27.05.2007 01:00 14,9 C 91 % 999,6 hPa 0,5 mm 3,2 km/h (1 Bft) O 90 0 min 0 UV-I 0 W/m 8,0 km/h (2 Bft)
27.05.2007 01:10 14,8 C 92 % 999,4 hPa 0,3 mm 3,2 km/h (1 Bft) O 90 0 min 0 UV-I 0 W/m 6,4 km/h (2 Bft)
27.05.2007 01:20 14,7 C 92 % 999,3 hPa 0,0 mm 3,2 km/h (1 Bft) O-SO 112 0 min 0 UV-I 0 W/m 8,0 km/h (2 Bft)
27.05.2007 01:30 14,8 C 92 % 999,2 hPa 0,3 mm 3,2 km/h (1 Bft) O-SO 112 0 min 0 UV-I 0 W/m 9,7 km/h (2 Bft)
27.05.2007 01:40 14,7 C 92 % 998,7 hPa 0,0 mm 3,2 km/h (1 Bft) O-SO 112 0 min 0 UV-I 0 W/m 11,3 km/h (2 Bft)
27.05.2007 01:50 14,7 C 92 % 998,6 hPa 0,0 mm 1,6 km/h (1 Bft) O-SO 112 0 min 0 UV-I 0 W/m 8,0 km/h (2 Bft)
27.05.2007 02:00 14,7 C 91 % 998,0 hPa 0,0 mm 1,6 km/h (1 Bft) O-SO 112 0 min 0 UV-I 0 W/m 6,4 km/h (2 Bft)
27.05.2007 02:10 14,7 C 91 % 998,0 hPa 0,0 mm 1,6 km/h (1 Bft) O 90 0 min 0 UV-I 0 W/m 6,4 km/h (2 Bft)
27.05.2007 02:20 14,7 C 91 % 998,0 hPa 0,0 mm 1,6 km/h (1 Bft) O 90 0 min 0 UV-I 0 W/m 4,8 km/h (1 Bft)
27.05.2007 02:30 14,8 C 91 % 998,2 hPa 0,0 mm 0,0 km/h (0 Bft) O 90 0 min 0 UV-I 0 W/m 3,2 km/h (1 Bft)
27.05.2007 02:40 14,6 C 91 % 998,1 hPa 0,0 mm 0,0 km/h (0 Bft) N 0 0 min 0 UV-I 0 W/m 0,0 km/h (0 Bft)
27.05.2007 02:50 14,5 C 91 % 998,1 hPa 0,3 mm 0,0 km/h (0 Bft) N 0 0 min 0 UV-I 0 W/m 0,0 km/h (0 Bft)
27.05.2007 03:00 14,4 C 92 % 997,9 hPa 0,0 mm 0,0 km/h (0 Bft) N 0 0 min 0 UV-I 0 W/m 0,0 km/h (0 Bft)
27.05.2007 03:10 14,3 C 92 % 997,6 hPa 0,0 mm 0,0 km/h (0 Bft) N 0 0 min 0 UV-I 0 W/m 0,0 km/h (0 Bft)
27.05.2007 03:20 14,2 C 92 % 997,5 hPa 0,0 mm 0,0 km/h (0 Bft) N 0 0 min 0 UV-I 0 W/m 0,0 km/h (0 Bft)
27.05.2007 03:30 14,2 C 92 % 997,7 hPa 0,0 mm 0,0 km/h (0 Bft) N 0 0 min 0 UV-I 0 W/m 0,0 km/h (0 Bft)
27.05.2007 03:40 14,0 C 93 % 997,6 hPa 0,0 mm 0,0 km/h (0 Bft) N 0 0 min 0 UV-I 0 W/m 0,0 km/h (0 Bft)
27.05.2007 03:50 13,9 C 93 % 997,4 hPa 0,0 mm 0,0 km/h (0 Bft) N 0 0 min 0 UV-I 0 W/m 0,0 km/h (0 Bft)
27.05.2007 04:00 13,8 C 93 % 997,4 hPa 0,0 mm 0,0 km/h (0 Bft) O 90 0 min 0 UV-I 0 W/m 1,6 km/h (1 Bft)
27.05.2007 04:10 13,7 C 93 % 997,3 hPa 0,0 mm 0,0 km/h (0 Bft) N 0 0 min 0 UV-I 0 W/m 0,0 km/h (0 Bft)
27.05.2007 04:20 13,7 C 93 % 997,1 hPa 0,0 mm 0,0 km/h (0 Bft) N 0 0 min 0 UV-I 0 W/m 0,0 km/h (0 Bft)
27.05.2007 04:30 13,6 C 93 % 997,0 hPa 0,0 mm 0,0 km/h (0 Bft) O 90 0 min 0 UV-I 0 W/m 1,6 km/h (1 Bft)
27.05.2007 04:40 13,6 C 93 % 997,0 hPa 0,0 mm 0,0 km/h (0 Bft) O 90 0 min 0 UV-I 0 W/m 1,6 km/h (1 Bft)
27.05.2007 04:50 13,5 C 93 % 996,8 hPa 0,0 mm 0,0 km/h (0 Bft) O 90 0 min 0 UV-I 0 W/m 1,6 km/h (1 Bft)
27.05.2007 05:00 13,4 C 93 % 996,7 hPa 0,0 mm 0,0 km/h (0 Bft) N 0 0 min 0 UV-I 0 W/m 0,0 km/h (0 Bft)
27.05.2007 05:10 13,4 C 93 % 996,7 hPa 0,0 mm 0,0 km/h (0 Bft) O 90 0 min 0 UV-I 0 W/m 1,6 km/h (1 Bft)
27.05.2007 05:20 13,4 C 93 % 996,5 hPa 0,0 mm 0,0 km/h (0 Bft) O 90 0 min 0 UV-I 0 W/m 3,2 km/h (1 Bft)
27.05.2007 05:30 13,5 C 93 % 996,4 hPa 0,0 mm 0,0 km/h (0 Bft) O-SO 112 0 min 0 UV-I 7 W/m 4,8 km/h (1 Bft)
27.05.2007 05:40 13,7 C 93 % 996,6 hPa 0,0 mm 0,0 km/h (0 Bft) S 180 0 min 0 UV-I 14 W/m 4,8 km/h (1 Bft)
27.05.2007 05:50 13,8 C 92 % 996,5 hPa 0,0 mm 0,0 km/h (0 Bft) O 90 0 min 0 UV-I 21 W/m 4,8 km/h (1 Bft)
27.05.2007 06:00 13,9 C 92 % 996,4 hPa 0,0 mm 0,0 km/h (0 Bft) O 90 0 min 0 UV-I 26 W/m 1,6 km/h (1 Bft)
27.05.2007 06:10 14,1 C 92 % 996,4 hPa 0,0 mm 0,0 km/h (0 Bft) O-SO 112 0 min 0 UV-I 32 W/m 3,2 km/h (1 Bft)
27.05.2007 06:20 14,2 C 91 % 996,5 hPa 0,0 mm 0,0 km/h (0 Bft) O-SO 112 0 min 0 UV-I 35 W/m 4,8 km/h (1 Bft)
27.05.2007 06:30 14,4 C 90 % 996,4 hPa 0,0 mm 1,6 km/h (1 Bft) O-SO 112 10 min 0 UV-I 109 W/m 6,4 km/h (2 Bft)
27.05.2007 06:40 14,8 C 90 % 996,2 hPa 0,0 mm 0,0 km/h (0 Bft) O-SO 112 10 min 0 UV-I 134 W/m 4,8 km/h (1 Bft)
27.05.2007 06:50 15,1 C 88 % 996,3 hPa 0,0 mm 1,6 km/h (1 Bft) O 90 10 min 0 UV-I 160 W/m 6,4 km/h (2 Bft)
27.05.2007 07:00 15,4 C 88 % 996,3 hPa 0,0 mm 1,6 km/h (1 Bft) O 90 10 min 0 UV-I 179 W/m 8,0 km/h (2 Bft)
27.05.2007 07:10 15,7 C 87 % 996,4 hPa 0,0 mm 1,6 km/h (1 Bft) O-SO 112 10 min 0 UV-I 165 W/m 4,8 km/h (1 Bft)
27.05.2007 07:20 15,6 C 88 % 996,4 hPa 0,0 mm 1,6 km/h (1 Bft) SO 135 0 min 0 UV-I 135 W/m 4,8 km/h (1 Bft)
27.05.2007 07:30 15,6 C 87 % 996,3 hPa 0,0 mm 0,0 km/h (0 Bft) SO 135 10 min 1 UV-I 213 W/m 4,8 km/h (1 Bft)
27.05.2007 07:40 16,1 C 86 % 996,5 hPa 0,0 mm 0,0 km/h (0 Bft) SO 135 10 min 1 UV-I 258 W/m 3,2 km/h (1 Bft)
27.05.2007 07:50 16,4 C 86 % 996,5 hPa 0,0 mm 1,6 km/h (1 Bft) SO 135 10 min 1 UV-I 260 W/m 8,0 km/h (2 Bft)
27.05.2007 08:00 16,6 C 85 % 996,4 hPa 0,0 mm 1,6 km/h (1 Bft) S-SO 157 10 min 1 UV-I 220 W/m 6,4 km/h (2 Bft)
27.05.2007 08:10 16,5 C 83 % 996,3 hPa 0,0 mm 1,6 km/h (1 Bft) O-SO 112 10 min 1 UV-I 223 W/m 6,4 km/h (2 Bft)
27.05.2007 08:20 16,6 C 84 % 996,4 hPa 0,0 mm 1,6 km/h (1 Bft) O-SO 112 10 min 1 UV-I 387 W/m 6,4 km/h (2 Bft)
27.05.2007 08:30 16,9 C 83 % 996,2 hPa 0,0 mm 3,2 km/h (1 Bft) O-SO 112 10 min 1 UV-I 478 W/m 8,0 km/h (2 Bft)
27.05.2007 08:40 17,3 C 80 % 996,2 hPa 0,0 mm 4,8 km/h (1 Bft) O 90 10 min 2 UV-I 533 W/m 9,7 km/h (2 Bft)
27.05.2007 08:50 17,3 C 81 % 996,1 hPa 0,0 mm 3,2 km/h (1 Bft) O-SO 112 10 min 1 UV-I 445 W/m 8,0 km/h (2 Bft)
27.05.2007 09:00 17,5 C 81 % 996,1 hPa 0,0 mm 1,6 km/h (1 Bft) O-SO 112 10 min 1 UV-I 308 W/m 6,4 km/h (2 Bft)
27.05.2007 09:10 17,6 C 81 % 996,0 hPa 0,0 mm 1,6 km/h (1 Bft) S-SO 157 10 min 2 UV-I 510 W/m 4,8 km/h (1 Bft)
27.05.2007 09:20 18,2 C 77 % 996,2 hPa 0,0 mm 1,6 km/h (1 Bft) O 90 10 min 3 UV-I 679 W/m 6,4 km/h (2 Bft)
27.05.2007 09:30 18,8 C 77 % 996,3 hPa 0,0 mm 1,6 km/h (1 Bft) S-SO 157 10 min 3 UV-I 744 W/m 6,4 km/h (2 Bft)
27.05.2007 09:40 19,0 C 76 % 996,2 hPa 0,0 mm 1,6 km/h (1 Bft) SO 135 10 min 3 UV-I 520 W/m 6,4 km/h (2 Bft)
27.05.2007 09:50 19,1 C 75 % 996,3 hPa 0,0 mm 1,6 km/h (1 Bft) O-SO 112 10 min 3 UV-I 513 W/m 3,2 km/h (1 Bft)
27.05.2007 10:00 19,1 C 73 % 996,3 hPa 0,0 mm 1,6 km/h (1 Bft) O 90 10 min 3 UV-I 610 W/m 4,8 km/h (1 Bft)
27.05.2007 10:10 19,3 C 72 % 996,3 hPa 0,0 mm 1,6 km/h (1 Bft) SO 135 10 min 4 UV-I 733 W/m 4,8 km/h (1 Bft)
27.05.2007 10:20 19,7 C 73 % 996,3 hPa 0,0 mm 1,6 km/h (1 Bft) O 90 10 min 4 UV-I 747 W/m 3,2 km/h (1 Bft)
27.05.2007 10:30 20,3 C 71 % 996,3 hPa 0,0 mm 3,2 km/h (1 Bft) O 90 10 min 4 UV-I 851 W/m 6,4 km/h (2 Bft)
27.05.2007 10:40 20,2 C 70 % 996,3 hPa 0,0 mm 1,6 km/h (1 Bft) W-SW 247 10 min 5 UV-I 828 W/m 8,0 km/h (2 Bft)
27.05.2007 10:50 20,4 C 68 % 996,1 hPa 0,0 mm 1,6 km/h (1 Bft) SO 135 10 min 5 UV-I 1048 W/m 4,8 km/h (1 Bft)
27.05.2007 11:00 21,0 C 68 % 996,0 hPa 0,0 mm 1,6 km/h (1 Bft) S 180 0 min 5 UV-I 346 W/m 6,4 km/h (2 Bft)
27.05.2007 11:10 20,3 C 70 % 996,0 hPa 0,0 mm 1,6 km/h (1 Bft) O 90 10 min 3 UV-I 432 W/m 4,8 km/h (1 Bft)
27.05.2007 11:20 20,5 C 69 % 995,9 hPa 0,0 mm 1,6 km/h (1 Bft) W-SW 247 0 min 3 UV-I 360 W/m 8,0 km/h (2 Bft)
27.05.2007 11:30 20,4 C 68 % 996,0 hPa 0,0 mm 1,6 km/h (1 Bft) SW 225 0 min 2 UV-I 260 W/m 8,0 km/h (2 Bft)
27.05.2007 11:40 20,1 C 70 % 996,0 hPa 0,0 mm 3,2 km/h (1 Bft) W-SW 247 0 min 2 UV-I 257 W/m 9,7 km/h (2 Bft)
27.05.2007 11:50 19,9 C 70 % 996,1 hPa 0,0 mm 3,2 km/h (1 Bft) SW 225 0 min 2 UV-I 308 W/m 8,0 km/h (2 Bft)
27.05.2007 12:00 19,8 C 70 % 996,1 hPa 0,0 mm 4,8 km/h (1 Bft) W-SW 247 0 min 4 UV-I 438 W/m 14,5 km/h (3 Bft)
27.05.2007 12:10 19,9 C 69 % 996,0 hPa 0,0 mm 3,2 km/h (1 Bft) W-SW 247 10 min 4 UV-I 478 W/m 9,7 km/h (2 Bft)
27.05.2007 12:20 20,2 C 69 % 996,0 hPa 0,0 mm 3,2 km/h (1 Bft) W-SW 247 10 min 7 UV-I 1088 W/m 11,3 km/h (2 Bft)
27.05.2007 12:30 21,2 C 65 % 995,9 hPa 0,0 mm 4,8 km/h (1 Bft) W-SW 247 10 min 7 UV-I 1099 W/m 11,3 km/h (2 Bft)
27.05.2007 12:40 21,4 C 64 % 995,8 hPa 0,0 mm 3,2 km/h (1 Bft) W-SW 247 10 min 6 UV-I 965 W/m 11,3 km/h (2 Bft)
27.05.2007 12:50 21,1 C 65 % 995,5 hPa 0,0 mm 3,2 km/h (1 Bft) SW 225 10 min 7 UV-I 884 W/m 14,5 km/h (3 Bft)
27.05.2007 13:00 21,9 C 60 % 995,4 hPa 0,0 mm 3,2 km/h (1 Bft) SW 225 10 min 7 UV-I 1025 W/m 14,5 km/h (3 Bft)
27.05.2007 13:10 22,2 C 60 % 995,2 hPa 0,0 mm 3,2 km/h (1 Bft) W-SW 247 10 min 7 UV-I 969 W/m 16,1 km/h (3 Bft)
27.05.2007 13:20 22,5 C 59 % 995,2 hPa 0,0 mm 4,8 km/h (1 Bft) W-SW 247 10 min 7 UV-I 1000 W/m 11,3 km/h (2 Bft)
27.05.2007 13:30 22,5 C 61 % 995,1 hPa 0,0 mm 3,2 km/h (1 Bft) W-SW 247 10 min 7 UV-I 963 W/m 11,3 km/h (2 Bft)
27.05.2007 13:40 22,3 C 58 % 995,0 hPa 0,0 mm 3,2 km/h (1 Bft) W-SW 247 10 min 7 UV-I 524 W/m 9,7 km/h (2 Bft)
27.05.2007 13:50 22,8 C 58 % 994,9 hPa 0,0 mm 4,8 km/h (1 Bft) W-SW 247 10 min 7 UV-I 1025 W/m 16,1 km/h (3 Bft)
27.05.2007 14:00 22,5 C 59 % 995,0 hPa 0,0 mm 3,2 km/h (1 Bft) SW 225 10 min 5 UV-I 598 W/m 16,1 km/h (3 Bft)
27.05.2007 14:10 22,6 C 56 % 994,8 hPa 0,0 mm 4,8 km/h (1 Bft) W-SW 247 10 min 7 UV-I 638 W/m 11,3 km/h (2 Bft)
27.05.2007 14:20 22,6 C 58 % 994,8 hPa 0,0 mm 4,8 km/h (1 Bft) SW 225 10 min 6 UV-I 1055 W/m 14,5 km/h (3 Bft)
27.05.2007 14:30 22,3 C 57 % 994,7 hPa 0,0 mm 4,8 km/h (1 Bft) W-SW 247 0 min 3 UV-I 264 W/m 16,1 km/h (3 Bft)
27.05.2007 14:40 21,8 C 64 % 994,8 hPa 0,0 mm 3,2 km/h (1 Bft) W-SW 247 0 min 1 UV-I 169 W/m 9,7 km/h (2 Bft)
27.05.2007 14:50 21,1 C 69 % 994,9 hPa 0,0 mm 1,6 km/h (1 Bft) SW 225 0 min 1 UV-I 144 W/m 6,4 km/h (2 Bft)
27.05.2007 15:00 20,7 C 67 % 995,0 hPa 0,0 mm 3,2 km/h (1 Bft) W-SW 247 0 min 1 UV-I 111 W/m 9,7 km/h (2 Bft)
27.05.2007 15:10 19,9 C 75 % 995,5 hPa 0,3 mm 8,0 km/h (2 Bft) W-SW 247 0 min 1 UV-I 69 W/m 22,5 km/h (4 Bft)
27.05.2007 15:20 18,3 C 81 % 995,7 hPa 0,8 mm 6,4 km/h (2 Bft) W-SW 247 0 min 0 UV-I 42 W/m 20,9 km/h (4 Bft)
27.05.2007 15:30 17,3 C 84 % 996,0 hPa 0,3 mm 3,2 km/h (1 Bft) SW 225 0 min 0 UV-I 28 W/m 11,3 km/h (2 Bft)
27.05.2007 15:40 16,8 C 87 % 996,1 hPa 1,3 mm 3,2 km/h (1 Bft) W-SW 247 0 min 0 UV-I 37 W/m 12,9 km/h (3 Bft)
27.05.2007 15:50 16,4 C 87 % 996,2 hPa 0,0 mm 3,2 km/h (1 Bft) SW 225 0 min 0 UV-I 37 W/m 11,3 km/h (2 Bft)
27.05.2007 16:00 16,3 C 88 % 996,0 hPa 0,3 mm 4,8 km/h (1 Bft) W-SW 247 0 min 0 UV-I 44 W/m 16,1 km/h (3 Bft)
27.05.2007 16:10 16,1 C 89 % 996,0 hPa 0,5 mm 3,2 km/h (1 Bft) W-SW 247 0 min 1 UV-I 90 W/m 11,3 km/h (2 Bft)
27.05.2007 16:20 16,1 C 90 % 996,1 hPa 0,3 mm 3,2 km/h (1 Bft) SW 225 0 min 1 UV-I 156 W/m 9,7 km/h (2 Bft)
27.05.2007 16:30 16,1 C 89 % 996,2 hPa 0,0 mm 4,8 km/h (1 Bft) W-SW 247 0 min 1 UV-I 176 W/m 12,9 km/h (3 Bft)
27.05.2007 16:40 16,2 C 90 % 996,1 hPa 0,0 mm 3,2 km/h (1 Bft) W 270 0 min 1 UV-I 93 W/m 14,5 km/h (3 Bft)
27.05.2007 16:50 16,3 C 89 % 995,9 hPa 0,0 mm 3,2 km/h (1 Bft) SW 225 0 min 1 UV-I 132 W/m 8,0 km/h (2 Bft)
27.05.2007 17:00 16,3 C 88 % 995,8 hPa 0,0 mm 3,2 km/h (1 Bft) W-SW 247 0 min 1 UV-I 104 W/m 8,0 km/h (2 Bft)
27.05.2007 17:10 16,3 C 89 % 995,8 hPa 0,0 mm 3,2 km/h (1 Bft) W-SW 247 0 min 1 UV-I 83 W/m 11,3 km/h (2 Bft)
27.05.2007 17:20 16,2 C 89 % 996,0 hPa 0,0 mm 3,2 km/h (1 Bft) W-SW 247 0 min 1 UV-I 91 W/m 9,7 km/h (2 Bft)
27.05.2007 17:30 16,2 C 89 % 996,1 hPa 0,0 mm 3,2 km/h (1 Bft) W-SW 247 0 min 1 UV-I 178 W/m 16,1 km/h (3 Bft)
27.05.2007 17:40 16,1 C 87 % 996,3 hPa 0,0 mm 4,8 km/h (1 Bft) W-SW 247 0 min 1 UV-I 158 W/m 14,5 km/h (3 Bft)
27.05.2007 17:50 15,9 C 86 % 996,4 hPa 0,0 mm 4,8 km/h (1 Bft) W-SW 247 0 min 1 UV-I 200 W/m 11,3 km/h (2 Bft)
27.05.2007 18:00 16,1 C 86 % 996,6 hPa 0,0 mm 4,8 km/h (1 Bft) W-SW 247 0 min 1 UV-I 211 W/m 11,3 km/h (2 Bft)
27.05.2007 18:10 16,3 C 86 % 996,5 hPa 0,0 mm 3,2 km/h (1 Bft) SW 225 10 min 2 UV-I 346 W/m 8,0 km/h (2 Bft)
27.05.2007 18:20 16,7 C 82 % 996,4 hPa 0,0 mm 3,2 km/h (1 Bft) SW 225 10 min 1 UV-I 410 W/m 8,0 km/h (2 Bft)
27.05.2007 18:30 16,6 C 82 % 996,3 hPa 0,0 mm 3,2 km/h (1 Bft) W-SW 247 10 min 1 UV-I 237 W/m 9,7 km/h (2 Bft)
27.05.2007 18:40 16,6 C 81 % 996,1 hPa 0,0 mm 3,2 km/h (1 Bft) W-SW 247 0 min 1 UV-I 148 W/m 9,7 km/h (2 Bft)
27.05.2007 18:50 16,7 C 79 % 995,9 hPa 0,0 mm 1,6 km/h (1 Bft) W 270 0 min 1 UV-I 139 W/m 6,4 km/h (2 Bft)
27.05.2007 19:00 16,7 C 79 % 995,9 hPa 0,0 mm 1,6 km/h (1 Bft) W-SW 247 10 min 1 UV-I 236 W/m 8,0 km/h (2 Bft)
27.05.2007 19:10 16,8 C 78 % 995,8 hPa 0,0 mm 1,6 km/h (1 Bft) W-SW 247 10 min 1 UV-I 250 W/m 8,0 km/h (2 Bft)
27.05.2007 19:20 16,8 C 79 % 996,0 hPa 0,0 mm 1,6 km/h (1 Bft) W-SW 247 0 min 0 UV-I 81 W/m 6,4 km/h (2 Bft)
27.05.2007 19:30 16,6 C 78 % 996,1 hPa 0,0 mm 1,6 km/h (1 Bft) SW 225 0 min 0 UV-I 46 W/m 6,4 km/h (2 Bft)
27.05.2007 19:40 16,3 C 78 % 996,0 hPa 0,0 mm 1,6 km/h (1 Bft) W-SW 247 0 min 0 UV-I 62 W/m 4,8 km/h (1 Bft)
27.05.2007 19:50 16,3 C 79 % 996,1 hPa 0,0 mm 1,6 km/h (1 Bft) W-SW 247 0 min 0 UV-I 91 W/m 8,0 km/h (2 Bft)
27.05.2007 20:00 16,4 C 78 % 996,1 hPa 0,0 mm 3,2 km/h (1 Bft) W-SW 247 0 min 0 UV-I 54 W/m 9,7 km/h (2 Bft)
27.05.2007 20:10 16,3 C 80 % 996,3 hPa 0,0 mm 1,6 km/h (1 Bft) W-SW 247 0 min 0 UV-I 60 W/m 4,8 km/h (1 Bft)
27.05.2007 20:20 16,3 C 80 % 996,2 hPa 0,0 mm 1,6 km/h (1 Bft) SW 225 0 min 0 UV-I 70 W/m 6,4 km/h (2 Bft)
27.05.2007 20:30 16,2 C 79 % 996,3 hPa 0,0 mm 1,6 km/h (1 Bft) SW 225 0 min 0 UV-I 49 W/m 6,4 km/h (2 Bft)
27.05.2007 20:40 16,1 C 80 % 996,4 hPa 0,0 mm 1,6 km/h (1 Bft) W-SW 247 0 min 0 UV-I 33 W/m 6,4 km/h (2 Bft)
27.05.2007 20:50 15,9 C 80 % 996,4 hPa 0,0 mm 0,0 km/h (0 Bft) W-SW 247 0 min 0 UV-I 30 W/m 4,8 km/h (1 Bft)
27.05.2007 21:00 15,8 C 81 % 996,6 hPa 0,0 mm 0,0 km/h (0 Bft) W-SW 247 0 min 0 UV-I 25 W/m 4,8 km/h (1 Bft)
27.05.2007 21:10 15,7 C 81 % 996,6 hPa 0,0 mm 0,0 km/h (0 Bft) W-SW 247 10 min 0 UV-I 21 W/m 3,2 km/h (1 Bft)
27.05.2007 21:20 15,7 C 82 % 996,8 hPa 0,0 mm 0,0 km/h (0 Bft) W-SW 247 0 min 0 UV-I 14 W/m 3,2 km/h (1 Bft)
27.05.2007 21:30 15,6 C 83 % 996,9 hPa 0,0 mm 0,0 km/h (0 Bft) N 0 0 min 0 UV-I 0 W/m 0,0 km/h (0 Bft)
27.05.2007 21:40 15,2 C 84 % 997,0 hPa 0,0 mm 0,0 km/h (0 Bft) N 0 0 min 0 UV-I 0 W/m 0,0 km/h (0 Bft)
27.05.2007 21:50 15,0 C 85 % 997,0 hPa 0,0 mm 0,0 km/h (0 Bft) N 0 0 min 0 UV-I 0 W/m 0,0 km/h (0 Bft)
27.05.2007 22:00 14,7 C 86 % 997,1 hPa 0,0 mm 0,0 km/h (0 Bft) N-NW 337 0 min 0 UV-I 0 W/m 1,6 km/h (1 Bft)
27.05.2007 22:10 14,4 C 86 % 997,2 hPa 0,0 mm 0,0 km/h (0 Bft) N 0 0 min 0 UV-I 0 W/m 0,0 km/h (0 Bft)
27.05.2007 22:20 14,2 C 86 % 997,2 hPa 0,0 mm 0,0 km/h (0 Bft) N 0 0 min 0 UV-I 0 W/m 0,0 km/h (0 Bft)
27.05.2007 22:30 14,1 C 87 % 997,0 hPa 0,0 mm 0,0 km/h (0 Bft) N-NW 337 0 min 0 UV-I 0 W/m 1,6 km/h (1 Bft)
27.05.2007 22:40 13,9 C 86 % 997,1 hPa 0,0 mm 0,0 km/h (0 Bft) N 0 0 min 0 UV-I 0 W/m 0,0 km/h (0 Bft)
27.05.2007 22:50 13,9 C 86 % 997,0 hPa 0,0 mm 0,0 km/h (0 Bft) N-NW 337 0 min 0 UV-I 0 W/m 1,6 km/h (1 Bft)
27.05.2007 23:00 13,8 C 86 % 996,9 hPa 0,0 mm 0,0 km/h (0 Bft) N-NW 337 0 min 0 UV-I 0 W/m 3,2 km/h (1 Bft)
27.05.2007 23:10 13,6 C 86 % 997,0 hPa 0,0 mm 0,0 km/h (0 Bft) N-NW 337 0 min 0 UV-I 0 W/m 1,6 km/h (1 Bft)
27.05.2007 23:20 13,4 C 87 % 996,8 hPa 0,0 mm 0,0 km/h (0 Bft) N 0 0 min 0 UV-I 0 W/m 0,0 km/h (0 Bft)
27.05.2007 23:30 13,2 C 88 % 996,7 hPa 0,0 mm 0,0 km/h (0 Bft) N 0 0 min 0 UV-I 0 W/m 0,0 km/h (0 Bft)
27.05.2007 23:40 12,9 C 88 % 996,6 hPa 0,0 mm 0,0 km/h (0 Bft) N 0 0 min 0 UV-I 0 W/m 0,0 km/h (0 Bft)
27.05.2007 23:50 12,8 C 89 % 996,6 hPa 0,0 mm 0,0 km/h (0 Bft) N 0 0 min 0 UV-I 0 W/m 0,0 km/h (0 Bft)
_ Min-Zeit 23:50 14:10 14:30 - 00:30 - - - - - 02:40
Minimum _ 12,8 C 56 % 994,7 hPa - 0,0 km/h (0 Bft) - - - - - 0,0 km/h (0 Bft)
_ Max-Zeit 13:50 03:40 00:00 00:00 15:10 - - 06:30 12:20 12:30 15:10
Maximum _ 23,0 C 93 % 1001,6 hPa 2,5 mm 8,0 km/h
W-SW (2 Bft)
- - 10 min 7 UV-I 1099 W/m 22,5 km/h
N (4 Bft)
Durchschnitt _ 16,6 C 82 % 996,7 hPa #12,4 mm 1,9 km/h (1 Bft) W-SW - #7:50 h 3 UV-I 332 W/m 6,8 km/h (2 Bft)